Location: Chiroubles
(46.1812°N, 4.6660°E)
Time: 22:06:02
(UTC+00:00)

Altair - All Passes

Search period start: 25 November 2020 00:00
Search period end: 05 December 2020 00:00
Orbit: 1502 x 1682 km, 47.2° (Epoch: 25 November)

Date Brightness Start Highest point End Pass type
(mag) Time Alt. Az. Time Alt. Az. Time Alt. Az.
25 Nov - 00:25:07 10° W 00:34:22 84° N 00:43:40 10° E visible
25 Nov - 02:29:56 10° WNW 02:39:00 68° SSW 02:48:15 10° SE visible
25 Nov - 04:35:14 10° W 04:42:31 27° SW 04:49:56 10° S visible
25 Nov - 19:52:28 10° SSW 20:00:36 35° SE 20:08:34 10° ENE visible
25 Nov - 21:55:07 10° WSW 22:04:23 77° SSE 22:13:33 10° ENE visible
25 Nov - 23:59:56 10° W 00:09:10 84° N 00:18:28 10° E night (unlit)
26 Nov - 02:04:46 10° WNW 02:13:53 71° SSW 02:23:07 10° SE visible
26 Nov - 04:09:57 10° WNW 04:17:28 29° SW 04:25:08 10° S visible
26 Nov - 19:27:36 10° SSW 19:35:32 32° SE 19:43:19 10° ENE visible
26 Nov - 21:29:59 10° WSW 21:39:14 74° SSE 21:48:23 10° ENE visible
26 Nov - 23:34:44 10° W 23:44:00 84° N 23:53:15 10° E night (unlit)
27 Nov - 01:39:36 10° WNW 01:48:44 74° SSW 01:57:59 10° ESE visible
27 Nov - 03:44:41 10° WNW 03:52:25 32° SW 04:00:19 10° SSE visible
27 Nov - 19:02:46 10° S 19:10:29 30° SE 19:18:03 10° ENE visible
27 Nov - 21:04:51 10° SW 21:14:06 71° SSE 21:23:13 10° ENE visible
27 Nov - 23:09:32 10° W 23:18:49 84° N 23:28:04 10° E night (unlit)
28 Nov - 01:14:26 10° WNW 01:23:36 77° SSW 01:32:51 10° ESE visible
28 Nov - 03:19:26 10° WNW 03:27:22 34° SW 03:35:27 10° SSE visible
28 Nov - 18:37:58 10° S 18:45:27 27° SE 18:52:46 10° E visible
28 Nov - 20:39:44 10° SW 20:48:58 68° SSE 20:58:03 10° ENE visible
28 Nov - 22:44:20 10° W 22:53:38 84° N 23:02:52 10° E night (unlit)
29 Nov - 00:49:15 10° WNW 00:58:27 79° SSW 01:07:42 10° ESE visible
29 Nov - 02:54:12 10° WNW 03:02:19 37° SW 03:10:33 10° SSE visible
29 Nov - 18:13:13 10° S 18:20:24 25° SE 18:27:27 10° E visible
29 Nov - 20:14:37 10° SW 20:23:50 65° SSE 20:32:53 10° ENE visible
29 Nov - 22:19:07 10° W 22:28:27 85° N 22:37:41 10° E visible
30 Nov - 00:24:05 10° WNW 00:33:18 82° SSW 00:42:33 10° ESE night (unlit)
30 Nov - 02:28:58 10° WNW 02:37:15 40° SW 02:45:38 10° SSE visible
30 Nov - 17:48:30 10° S 17:55:22 23° SE 18:02:07 10° E visible
30 Nov - 19:49:31 10° SW 19:58:43 62° SSE 20:07:43 10° ENE visible
30 Nov - 21:53:55 10° W 22:03:16 86° N 22:12:30 10° E visible
30 Nov - 23:58:54 10° WNW 00:08:09 84° SSW 00:17:23 10° ESE night (unlit)
01 Dec - 02:03:45 10° WNW 02:12:11 42° SW 02:20:41 10° SSE visible
01 Dec - 04:12:29 10° WSW 04:14:53 11° WSW 04:17:19 10° SW visible
01 Dec - 17:23:51 10° S 17:30:21 21° SE 17:36:43 10° E visible
01 Dec - 19:24:26 10° SW 19:33:36 59° SSE 19:42:33 10° ENE visible
01 Dec - 21:28:43 10° W 21:38:05 87° N 21:47:19 10° E visible
01 Dec - 23:33:44 10° WNW 23:42:59 87° SSW 23:52:13 10° ESE night (unlit)
02 Dec - 01:38:34 10° WNW 01:47:06 45° SW 01:55:43 10° SSE visible
02 Dec - 03:46:16 10° W 03:49:54 13° SW 03:53:34 10° SSW visible
02 Dec - 16:59:15 10° SSE 17:05:19 19° SE 17:11:16 10° E visible
02 Dec - 18:59:22 10° SW 19:08:29 55° SSE 19:17:23 10° ENE visible
02 Dec - 21:03:30 10° WSW 21:12:54 88° N 21:22:08 10° E visible
02 Dec - 23:08:32 10° WNW 23:17:49 89° S 23:27:03 10° ESE night (unlit)
03 Dec - 01:13:22 10° WNW 01:22:01 49° SW 01:30:44 10° SE night (unlit)
03 Dec - 03:20:26 10° W 03:24:55 15° SW 03:29:27 10° SSW visible
03 Dec - 16:34:45 10° SSE 16:40:18 17° SE 16:45:46 10° E visible
03 Dec - 18:34:18 10° SW 18:43:23 52° SE 18:52:13 10° ENE visible
03 Dec - 20:38:18 10° WSW 20:47:43 89° N 20:56:57 10° E visible
03 Dec - 22:43:20 10° W 22:52:39 90° NNE 23:01:52 10° ESE visible
04 Dec - 00:48:10 10° WNW 00:56:56 52° SW 01:05:44 10° SE night (unlit)
04 Dec - 02:54:46 10° W 02:59:55 16° SW 03:05:06 10° SSW night (unlit)
04 Dec - 16:10:21 10° SSE 16:15:18 15° SE 16:20:09 10° E daylight
04 Dec - 18:09:16 10° SW 18:18:17 49° SE 18:27:02 10° ENE visible
04 Dec - 20:13:06 10° WSW 20:22:33 89° SSE 20:31:47 10° ENE visible
04 Dec - 22:18:09 10° W 22:27:28 88° N 22:36:42 10° ESE visible
